[[{"header":{"parameterUnit":"m.s-1","parameterCategory":1,"la1":30.2991,"la2":30.254,"lo1":-89.0895,"lo2":-89.0444,"dx":0.0017,"dy":0.0017,"nx":28,"ny":28,"refTime":"2022-11-21T15:00:00:Z","depth":0,"parameterNumber":2,"parameterNumberName":"U-component_of_WINDS"},"data":[0,0,0,0,0,0,0,0,0,0,0,0,0,0,0,0,0,0,0,0,0,0,0,0,0,0,0,0,0,0,0,0,0,0,0,0,0,0,0,0,0,0,0,0,0,0,0,0,0,0,0,0,0,0,0,0,0,0,-0.9471,-0.9472,0,-0.9522,-0.9522,-0.9523,-0.9526,-0.9525,-0.9525,-0.9524,-0.9576,-0.9578,-0.958,0,0,0,0,0,0,0,0,0,0,0,0,0,-0.9378,-0.938,-0.9471,-0.9472,-0.9472,-0.9521,-0.9522,-0.9523,-0.9526,-0.9525,-0.9525,-0.9524,-0.9575,-0.9578,-0.958,0,0,0,0,0,0,0,0,0,0,0,0,0,-0.9423,-0.938,-0.9471,-0.948,-0.9481,-0.9521,-0.9522,-0.9523,-0.9526,-0.9525,-0.9525,-0.9524,-0.9575,-0.9577,-0.958,-0.9615,0,0,-0.9589,-0.959,0,0,0,0,0,0,0,0,-0.942,-0.9426,-0.9478,-0.9479,-0.9481,-0.9517,-0.9508,-0.9554,-0.9526,-0.9509,-0.9524,-0.9523,-0.9557,-0.9561,-0.9572,-0.9617,-0.9619,-0.9589,-0.9591,-0.9592,-0.9593,0,0,0,0,0,0,0,-0.9417,-0.9424,-0.9491,-0.9479,-0.9481,-0.9482,-0.9487,-0.9517,-0.9537,-0.9511,-0.9511,-0.9517,-0.9558,-0.957,-0.9574,-0.962,-0.9589,-0.9592,-0.9593,-0.9594,-0.9697,-0.9698,0,0,0,0,0,0,-0.9412,-0.9421,-0.9489,-0.9493,-0.9448,-0.9484,-0.949,-0.9506,-0.9537,-0.9541,-0.9518,-0.9517,-0.9565,-0.957,-0.9576,-0.9619,-0.9592,-0.9595,-0.9596,-0.9696,-0.9697,-0.9698,0,0,0,0,0,0,-0.941,-0.9418,-0.9487,-0.9457,-0.9466,-0.9486,-0.9504,-0.9507,-0.952,-0.9542,-0.9546,-0.9526,-0.9565,-0.9572,-0.9605,-0.9621,-0.9596,-0.9599,-0.9695,-0.9696,-0.9698,-0.9706,0,0,0,0,0,0,-0.9407,-0.9417,-0.9431,-0.9457,-0.9468,-0.9516,-0.9505,-0.9509,-0.9525,-0.9524,-0.9551,-0.9555,-0.9565,-0.9601,-0.9608,-0.9624,-0.9601,-0.9693,-0.9695,-0.9697,-0.9704,-0.9707,-0.971,0,0,0,0,0,-0.9404,-0.9431,-0.9431,-0.944,-0.9485,-0.9517,-0.9523,-0.9534,-0.9526,-0.954,-0.9554,-0.9554,-0.9618,-0.9604,-0.9612,-0.963,-0.9692,-0.9695,-0.9697,-0.9703,-0.9707,-0.971,0,0,0,0,0,0,-0.9405,-0.9434,-0.9435,-0.9471,-0.9492,-0.9518,-0.9535,-0.9537,-0.956,-0.9559,-0.9571,-0.9577,-0.9611,-0.9623,-0.9608,-0.9665,-0.9654,-0.9658,-0.9656,-0.966,-0.9663,-0.9659,-0.9603,0,0,0,0,0,-0.941,-0.9434,-0.9458,-0.9487,-0.9498,-0.9515,-0.9529,-0.9536,-0.9557,-0.9566,-0.9583,-0.9604,-0.9629,-0.9645,-0.9669,-0.9706,-0.9712,-0.9721,-0.9724,-0.9727,-0.973,-0.9752,-0.9756,-0.9706,-0.9706,-0.9705,0,0,-0.9419,-0.9438,-0.9453,-0.9488,-0.9505,-0.953,-0.9522,-0.9548,-0.9567,-0.957,-0.9603,-0.9616,-0.964,-0.9676,-0.9693,-0.9688,-0.9745,-0.9729,-0.9731,-0.9734,-0.9754,-0.9759,-0.9763,-0.9707,-0.9707,-0.9707,0,0,-0.945,-0.9466,-0.9493,-0.951,-0.9535,-0.9546,-0.9552,-0.9578,-0.9587,-0.962,-0.9623,-0.9646,-0.9688,-0.9705,-0.972,-0.9757,-0.9758,-0.9764,-0.978,-0.98,-0.9805,-0.9808,-0.9822,-0.9827,-0.9768,-0.9768,-0.9768,0,-0.9459,-0.9496,-0.9506,-0.9533,-0.9549,-0.9553,-0.958,-0.9596,-0.9628,-0.9639,-0.9632,-0.9686,-0.9703,-0.9743,-0.9752,-0.9763,-0.9771,-0.9762,-0.9803,-0.9807,-0.981,-0.9824,-0.9829,-0.9768,-0.9768,-0.9768,-0.9768,0,-0.9506,-0.9532,-0.9551,-0.9582,-0.9599,-0.9626,-0.9641,-0.9658,-0.9662,-0.9674,-0.9709,-0.9729,-0.9757,-0.9767,-0.9772,-0.9808,-0.9804,-0.98,-0.979,-0.9816,-0.9829,-0.9834,-0.9769,-0.9769,-0.9769,-0.9769,0,0,-0.9539,-0.9576,-0.9582,-0.9597,-0.9625,-0.9645,-0.9672,-0.97,-0.9715,-0.9736,-0.976,-0.9796,-0.9793,-0.9809,-0.9816,-0.9834,-0.9863,-0.9828,-0.9828,-0.9834,-0.9905,-0.9909,-0.9915,-0.9864,-0.9865,-0.9865,-0.9904,0,-0.9573,-0.9622,-0.9632,-0.9675,-0.9699,-0.9703,-0.9727,-0.9747,-0.9759,-0.9781,-0.9794,-0.982,-0.9813,-0.9823,-0.9841,-0.9856,-0.9878,-0.9853,-0.9886,-0.9887,-0.9881,-0.9921,-0.9925,-0.996,-0.9909,-0.991,-0.991,0,-0.962,-0.9643,-0.9688,-0.9714,-0.9724,-0.9745,-0.9772,-0.9793,-0.9816,-0.9824,-0.9842,-0.9847,-0.9876,-0.9863,-0.9903,-0.9886,-0.99,-0.9909,-0.9911,-0.9915,-0.9901,-0.9928,-0.9972,-0.9977,-0.9918,-0.9918,-0.9917,0,-0.9641,-0.9683,-0.9716,-0.9728,-0.9758,-0.9773,-0.9786,-0.9808,-0.9825,-0.9848,-0.9859,-0.9885,-0.9899,-0.992,-0.9932,-0.9921,-0.9971,-0.9959,-0.9979,-0.9978,-0.999,-0.9989,-1.0038,-0.9997,-0.9997,-0.9997,-0.9997,0,-0.9679,-0.9706,-0.9726,-0.9746,-0.9777,-0.9788,-0.9819,-0.9832,-0.9851,-0.9874,-0.9879,-0.99,-0.9914,-0.9938,-0.9947,-0.9979,-0.9986,-0.9993,-0.9995,-0.9993,-0.9992,-1.0003,-1.0002,-0.9998,-0.9998,-0.9998,-0.9998,0,-0.9708,-0.9722,-0.9758,-0.9783,-0.9791,-0.9812,-0.9835,-0.9854,-0.9866,-0.9895,-0.9903,-0.9921,-0.9949,-0.9963,-0.9997,-1.0004,-1.004,-1.0041,-1.0033,-1.0034,-1.0053,-1.0052,-1.0111,-1.012,-1.0073,-1.0073,-1.0073,0,-0.9732,-0.9753,-0.9781,-0.9797,-0.9811,-0.9836,-0.9853,-0.9865,-0.9882,-0.991,-0.9926,-0.9954,-0.9978,-1.0022,-1.0039,-1.0065,-1.0067,-1.0086,-1.0071,-1.0068,-1.0068,-1.0067,-1.007,-1.0089,-1.0089,-1.009,-1.009,0,-0.9773,-0.9779,-0.9803,-0.9829,-0.9849,-0.9871,-0.9892,-0.9905,-0.992,-0.9939,-0.9968,-0.9986,-1.0022,-1.005,-1.0077,-1.0091,-1.0094,-1.0094,-1.0101,-1.0099,-1.0094,-1.0098,-1.0041,-1.0093,-1.0093,-1.0093,-1.0092,-1.0092,-0.9801,-0.982,-0.9843,-0.987,-0.9887,-0.9907,-0.9927,-0.9941,-0.9966,-0.9996,-1.0001,-1.0032,-1.0054,-1.0092,-1.0107,-1.0131,-1.0127,-1.0135,-1.0138,-1.014,-1.0141,-1.0089,-1.0136,-1.0136,-1.0136,-1.0136,-1.0136,0,-0.9843,-0.9858,-0.9882,-0.9912,-0.9933,-0.9933,-0.9957,-0.9975,-1.0002,-1.0022,-1.0045,-1.0078,-1.0106,-1.0125,-1.0152,-1.0168,-1.017,-1.0175,-1.0175,-1.0178,-1.0143,-1.0135,-1.0173,-1.0173,-1.0173,-1.0173,-1.0173,-1.0173,-0.9867,-0.9901,-0.9909,-0.9951,-0.9966,-0.9996,-1.001,-1.0028,-1.0045,-1.0082,-1.0105,-1.0117,-1.0137,-1.0166,-1.0192,-1.0196,-1.0207,-1.0212,-1.0217,-1.0184,-1.018,-1.0177,-1.017,-1.0214,-1.0214,-1.025,-1.0251,-1.0251]},{"header":{"parameterUnit":"m.s-1","parameterCategory":1,"la1":30.2991,"la2":30.254,"lo1":-89.0895,"lo2":-89.0444,"dx":0.0017,"dy":0.0017,"nx":28,"ny":28,"refTime":"2022-11-21T15:00:00:Z","depth":0,"parameterNumber":3,"parameterNumberName":"V-component_of_WINDS"},"data":[0,0,0,0,0,0,0,0,0,0,0,0,0,0,0,0,0,0,0,0,0,0,0,0,0,0,0,0,0,0,0,0,0,0,0,0,0,0,0,0,0,0,0,0,0,0,0,0,0,0,0,0,0,0,0,0,0,0,-3.6009,-3.601,0,-3.6132,-3.6133,-3.6135,-3.613,-3.6129,-3.6127,-3.6125,-3.6248,-3.6253,-3.6258,0,0,0,0,0,0,0,0,0,0,0,0,0,-3.5768,-3.5772,-3.6009,-3.6011,-3.6012,-3.6132,-3.6133,-3.6135,-3.6131,-3.6129,-3.6126,-3.6124,-3.6247,-3.6252,-3.6258,0,0,0,0,0,0,0,0,0,0,0,0,0,-3.588,-3.5774,-3.6009,-3.6024,-3.6027,-3.6131,-3.6134,-3.6136,-3.6131,-3.6128,-3.6126,-3.6124,-3.6245,-3.6252,-3.6259,-3.6355,0,0,-3.6281,-3.6285,0,0,0,0,0,0,0,0,-3.5873,-3.5888,-3.602,-3.6023,-3.6027,-3.6113,-3.6094,-3.6209,-3.6132,-3.6091,-3.6125,-3.6122,-3.6205,-3.6216,-3.6244,-3.6361,-3.6366,-3.6282,-3.6287,-3.629,-3.6292,0,0,0,0,0,0,0,-3.5866,-3.5883,-3.6058,-3.6022,-3.6026,-3.6024,-3.6037,-3.6115,-3.6161,-3.6095,-3.6095,-3.6109,-3.6206,-3.6237,-3.6247,-3.6368,-3.6282,-3.6288,-3.6293,-3.6296,-3.6571,-3.6574,0,0,0,0,0,0,-3.5855,-3.5877,-3.6054,-3.6061,-3.5942,-3.6031,-3.6045,-3.6088,-3.616,-3.6169,-3.6112,-3.6109,-3.6226,-3.6239,-3.6251,-3.637,-3.629,-3.6296,-3.6301,-3.6568,-3.6572,-3.6575,0,0,0,0,0,0,-3.585,-3.5871,-3.6049,-3.5969,-3.5992,-3.6038,-3.6085,-3.6092,-3.6123,-3.6173,-3.6181,-3.6135,-3.6225,-3.6241,-3.633,-3.6374,-3.63,-3.6306,-3.6565,-3.6569,-3.6573,-3.6607,0,0,0,0,0,0,-3.5843,-3.5869,-3.5907,-3.597,-3.5996,-3.6126,-3.6088,-3.6096,-3.6136,-3.6133,-3.6197,-3.6205,-3.6224,-3.6319,-3.6337,-3.6383,-3.6312,-3.6561,-3.6567,-3.6572,-3.6602,-3.6612,-3.662,0,0,0,0,0,-3.5834,-3.591,-3.5909,-3.593,-3.6044,-3.6129,-3.6143,-3.6164,-3.6139,-3.6177,-3.6209,-3.6203,-3.6366,-3.6328,-3.6349,-3.6397,-3.6558,-3.6565,-3.6571,-3.6598,-3.661,-3.662,0,0,0,0,0,0,-3.585,-3.5919,-3.5918,-3.6017,-3.6067,-3.6128,-3.6176,-3.6176,-3.6234,-3.6229,-3.6251,-3.6266,-3.6355,-3.6385,-3.6341,-3.6494,-3.6459,-3.647,-3.6472,-3.6484,-3.6493,-3.6484,-3.6318,0,0,0,0,0,-3.5865,-3.5929,-3.5985,-3.6067,-3.6093,-3.613,-3.6168,-3.618,-3.6232,-3.6253,-3.6292,-3.6342,-3.6405,-3.6446,-3.6506,-3.6606,-3.662,-3.6649,-3.6658,-3.6665,-3.6675,-3.6731,-3.6745,-3.6596,-3.6596,-3.6596,0,0,-3.5897,-3.5942,-3.5981,-3.6072,-3.6112,-3.6177,-3.6148,-3.6218,-3.6266,-3.6263,-3.635,-3.638,-3.6438,-3.6533,-3.6577,-3.656,-3.6719,-3.6674,-3.6679,-3.6685,-3.6739,-3.6753,-3.6765,-3.6601,-3.66,-3.6599,0,0,-3.5988,-3.6029,-3.6102,-3.6143,-3.6205,-3.623,-3.6247,-3.6308,-3.6329,-3.6416,-3.6416,-3.6473,-3.658,-3.6622,-3.6657,-3.6764,-3.676,-3.6783,-3.6831,-3.6885,-3.6896,-3.6907,-3.6946,-3.696,-3.6792,-3.6792,-3.6792,0,-3.6019,-3.6118,-3.6139,-3.6211,-3.625,-3.6251,-3.6326,-3.6364,-3.6442,-3.6469,-3.645,-3.6585,-3.6624,-3.6729,-3.6755,-3.6783,-3.6804,-3.6776,-3.6893,-3.6904,-3.6914,-3.6952,-3.6966,-3.6794,-3.6794,-3.6794,-3.6793,0,-3.6154,-3.6223,-3.6275,-3.6351,-3.6397,-3.6469,-3.65,-3.6544,-3.6551,-3.6578,-3.6667,-3.6713,-3.6784,-3.6809,-3.6817,-3.6916,-3.6904,-3.6888,-3.6853,-3.693,-3.6966,-3.698,-3.6798,-3.6797,-3.6796,-3.6795,0,0,-3.626,-3.6348,-3.6367,-3.6402,-3.647,-3.6523,-3.6595,-3.6664,-3.6702,-3.6755,-3.6816,-3.6907,-3.6893,-3.6933,-3.6945,-3.6992,-3.7075,-3.6971,-3.6973,-3.699,-3.7188,-3.72,-3.7217,-3.7073,-3.7076,-3.7078,-3.7184,0,-3.6359,-3.6489,-3.651,-3.6623,-3.6687,-3.6688,-3.6751,-3.6799,-3.6825,-3.6883,-3.6911,-3.6976,-3.6952,-3.6977,-3.7023,-3.7055,-3.7116,-3.7048,-3.713,-3.7133,-3.7117,-3.7235,-3.7248,-3.7346,-3.7198,-3.72,-3.7202,0,-3.6493,-3.6552,-3.6671,-3.6732,-3.6759,-3.6815,-3.6881,-3.6936,-3.699,-3.7006,-3.7051,-3.7058,-3.7131,-3.7092,-3.7195,-3.7148,-3.7182,-3.7203,-3.7207,-3.7217,-3.7173,-3.7249,-3.7378,-3.7393,-3.7224,-3.7222,-3.7221,0,-3.656,-3.6668,-3.6754,-3.6784,-3.6856,-3.6896,-3.6927,-3.6979,-3.702,-3.7077,-3.7104,-3.7168,-3.7203,-3.7253,-3.7276,-3.7245,-3.7377,-3.734,-3.7392,-3.7392,-3.7421,-3.7419,-3.7558,-3.7441,-3.7441,-3.7441,-3.744,0,-3.667,-3.6743,-3.6785,-3.6838,-3.6921,-3.6943,-3.7024,-3.7054,-3.71,-3.7159,-3.7163,-3.7218,-3.7245,-3.7303,-3.7322,-3.7404,-3.742,-3.7434,-3.7439,-3.7435,-3.7433,-3.7459,-3.7453,-3.7445,-3.7444,-3.7443,-3.7442,0,-3.6759,-3.679,-3.6884,-3.6945,-3.6962,-3.702,-3.7071,-3.7122,-3.7148,-3.7222,-3.7241,-3.7281,-3.735,-3.7378,-3.7462,-3.7474,-3.757,-3.7568,-3.7552,-3.7554,-3.7605,-3.7601,-3.7767,-3.779,-3.7656,-3.7657,-3.7658,0,-3.6827,-3.6884,-3.6951,-3.6992,-3.7025,-3.7089,-3.7131,-3.7155,-3.7199,-3.7265,-3.7308,-3.7377,-3.7434,-3.7544,-3.7581,-3.7645,-3.7646,-3.7699,-3.7655,-3.765,-3.7648,-3.7645,-3.7651,-3.7708,-3.7709,-3.771,-3.7711,0,-3.6947,-3.6959,-3.702,-3.7087,-3.7137,-3.7191,-3.7242,-3.7275,-3.7306,-3.7355,-3.7426,-3.747,-3.7557,-3.7626,-3.7692,-3.7724,-3.7723,-3.7725,-3.7741,-3.7738,-3.7727,-3.7735,-3.7576,-3.7721,-3.772,-3.7719,-3.7719,-3.7718,-3.7029,-3.708,-3.7135,-3.7203,-3.7245,-3.7293,-3.7345,-3.7377,-3.7438,-3.7511,-3.7521,-3.7598,-3.765,-3.774,-3.7774,-3.7834,-3.782,-3.7842,-3.7848,-3.7854,-3.7858,-3.7716,-3.7845,-3.7845,-3.7845,-3.7845,-3.7845,0,-3.7149,-3.7185,-3.7248,-3.7321,-3.7374,-3.7369,-3.7426,-3.7471,-3.7539,-3.7588,-3.7645,-3.7727,-3.7793,-3.7835,-3.7902,-3.7942,-3.7943,-3.7959,-3.7957,-3.7964,-3.7866,-3.7846,-3.7956,-3.7956,-3.7956,-3.7956,-3.7956,-3.7956,-3.7219,-3.7305,-3.7324,-3.7431,-3.7466,-3.7543,-3.7576,-3.762,-3.766,-3.7752,-3.7808,-3.7835,-3.7881,-3.7952,-3.8013,-3.8023,-3.8048,-3.8065,-3.8074,-3.7982,-3.7971,-3.796,-3.7941,-3.8069,-3.807,-3.8167,-3.8168,-3.8169]}]]